Temp
-10 -10 -10 -10 -10 -10 -10 -10 -11 -11 -11 -10 -10 -10 -10 -10 -9 -9 -9 -9 -9 -9 -9 -9 -9 -9 -9 -9 -9 -9 -9 -9 -9 -9 -9 -9 -9 -8 -8 -8 -8 -8 -8
-11 -10 -10 -10 -11 -10 -11 -11 -11 -11 -11 -10 -10 -10 -10 -10 -9 -9 -9 -9 -10 -10 -10 -10 -10 -9 -9 -9 -10 -10 -9 -9 -9 -9 -9 -9 -9 -9 -8 -8 -8 -8 -8
-11 -11 -11 -11 -11 -11 -11 -11 -11 -11 -11 -11 -11 -11 -10 -10 -10 -10 -10 -10 -10 -10 -10 -10 -10 -10 -10 -10 -10 -9 -9 -9 -9 -9 -9 -9 -9 -9 -8 -8 -8 -8 -8
-11 -11 -11 -11 -11 -11 -11 -11 -11 -11 -11 -11 -11 -11 -11 -11 -10 -10 -10 -11 -10 -10 -10 -10 -10 -10 -11 -10 -10 -9 -9 -9 -9 -9 -9 -9 -9 -9 -8 -8 -8 -8 -8
-11 -11 -11 -11 -11 -11 -11 -11 -11 -11 -11 -11 -11 -11 -11 -10 -10 -10 -10 -11 -10 -10 -10 -10 -10 -10 -10 -11 -10 -10 -10 -9 -9 -9 -9 -9 -9 -9 -8 -8 -8 -8 -8
-11 -11 -11 -11 -11 -11 -11 -11 -11 -11 -11 -11 -11 -11 -11 -11 -11 -10 -10 -10 -10 -11 -10 -10 -11 -11 -11 -10 -10 -10 -10 -10 -10 -9 -9 -9 -9 -9 -9 -9 -9 -9 -9
-11 -11 -11 -11 -11 -11 -11 -11 -11 -11 -11 -11 -11 -11 -11 -11 -11 -11 -11 -11 -11 -11 -11 -11 -11 -10 -10 -10 -10 -10 -10 -10 -10 -10 -10 -10 -10 -10 -10 -10 -10 -9 -9
-11 -11 -11 -11 -11 -11 -11 -11 -11 -11 -11 -11 -11 -11 -11 -11 -11 -11 -11 -11 -11 -11 -11 -11 -11 -11 -10 -10 -10 -10 -10 -10 -10 -10 -10 -10 -10 -10 -10 -10 -10 -10 -10
-11 -11 -11 -11 -11 -11 -11 -11 -11 -11 -11 -11 -11 -11 -11 -11 -11 -11 -11 -11 -11 -11 -11 -11 -11 -11 -11 -11 -10 -10 -11 -10 -10 -10 -10 -10 -10 -11 -11 -11 -11 -10 -10
-11 -11 -11 -11 -11 -11 -11 -11 -11 -11 -11 -11 -11 -11 -11 -11 -11 -11 -11 -11 -11 -11 -11 -11 -11 -11 -11 -11 -11 -11 -11 -11 -11 -10 -10 -10 -11 -11 -11 -11 -11 -10 -10
-11 -11 -11 -11 -11 -11 -11 -11 -11 -11 -11 -11 -11 -11 -11 -11 -11 -11 -11 -11 -11 -11 -11 -11 -11 -11 -11 -11 -11 -11 -11 -11 -10 -10 -10 -10 -11 -11 -11 -11 -11 -11 -10
-11 -11 -12 -12 -12 -12 -11 -12 -12 -12 -12 -12 -12 -11 -11 -11 -11 -11 -11 -11 -11 -11 -11 -11 -11 -11 -11 -11 -11 -11 -11 -11 -11 -11 -11 -11 -11 -11 -11 -11 -11 -11 -11
-11 -11 -11 -12 -12 -12 -12 -12 -12 -12 -12 -12 -12 -12 -12 -12 -12 -12 -11 -11 -11 -11 -11 -11 -11 -11 -11 -11 -11 -11 -11 -11 -11 -11 -11 -11 -11 -11 -11 -11 -11 -11 -11
-11 -11 -11 -12 -12 -12 -12 -12 -12 -12 -12 -12 -12 -12 -12 -12 -12 -12 -12 -12 -12 -12 -11 -11 -11 -11 -11 -11 -11 -11 -11 -11 -11 -11 -11 -11 -11 -11 -11 -11 -11 -11 -10
-11 -11 -11 -11 -11 -11 -11 -12 -12 -12 -12 -12 -12 -12 -12 -12 -12 -12 -12 -12 -12 -12 -12 -12 -12 -12 -12 -11 -11 -11 -11 -11 -11 -11 -11 -11 -11 -11 -11 -11 -11 -11 -11
-11 -11 -11 -11 -11 -11 -11 -11 -11 -12 -12 -12 -12 -12 -12 -12 -12 -12 -12 -12 -12 -12 -12 -12 -12 -12 -12 -12 -12 -11 -11 -11 -11 -11 -11 -11 -11 -11 -11 -11 -11 -11 -11
-11 -11 -11 -11 -11 -11 -11 -11 -11 -11 -12 -12 -12 -12 -12 -12 -12 -12 -12 -12 -12 -12 -12 -12 -12 -12 -12 -12 -12 -12 -11 -11 -11 -11 -11 -11 -11 -11 -11 -11 -11 -11 -11
-11 -11 -11 -11 -11 -11 -11 -11 -11 -11 -11 -12 -12 -12 -12 -12 -12 -12 -12 -13 -13 -12 -12 -12 -13 -13 -12 -12 -12 -12 -12 -12 -12 -12 -12 -12 -12 -12 -12 -11 -11 -11 -11
-11 -11 -11 -11 -11 -11 -11 -11 -11 -11 -12 -12 -12 -12 -12 -12 -13 -13 -13 -13 -13 -13 -13 -13 -13 -13 -13 -13 -12 -12 -12 -12 -12 -12 -12 -12 -12 -12 -12 -12 -12 -12 -11
-11 -11 -11 -11 -11 -11 -11 -11 -11 -12 -12 -12 -12 -12 -12 -12 -12 -13 -13 -13 -13 -13 -13 -13 -13 -12 -13 -13 -12 -13 -13 -13 -12 -13 -13 -13 -12 -12 -12 -12 -12 -12 -12
-11 -11 -11 -11 -11 -11 -11 -12 -12 -12 -12 -12 -12 -12 -12 -12 -13 -13 -13 -13 -13 -13 -13 -13 -13 -13 -13 -13 -12 -13 -13 -13 -13 -13 -13 -13 -13 -13 -13 -13 -12 -12 -12
-11 -11 -12 -12 -12 -12 -12 -12 -12 -12 -12 -12 -12 -12 -12 -12 -12 -13 -13 -13 -13 -13 -13 -14 -14 -13 -13 -14 -13 -13 -13 -13 -13 -13 -13 -13 -13 -13 -13 -13 -13 -13 -12
-12 -12 -12 -12 -12 -12 -12 -13 -13 -13 -13 -13 -13 -13 -13 -13 -13 -13 -13 -13 -13 -13 -14 -14 -14 -14 -14 -14 -14 -13 -13 -13 -13 -13 -13 -13 -13 -13 -13 -13 -13 -13 -13
-13 -13 -13 -13 -13 -13 -13 -13 -13 -13 -13 -13 -13 -13 -13 -13 -13 -14 -14 -15 -14 -14 -15 -14 -14 -14 -14 -14 -14 -14 -14 -13 -13 -13 -13 -14 -13 -13 -14 -13 -13 -13 -13
-14 -14 -15 -15 -15 -14 -14 -14 -14 -13 -13 -13 -13 -14 -14 -14 -14 -14 -15 -15 -16 -16 -16 -16 -16 -15 -15 -15 -15 -14 -14 -14 -13 -13 -14 -14 -14 -14 -13 -13 -13 -13 -13
-15 -15 -15 -15 -15 -15 -15 -15 -15 -15 -14 -14 -14 -14 -14 -15 -15 -16 -16 -15 -15 -16 -16 -16 -16 -16 -16 -16 -16 -15 -15 -15 -14 -14 -13 -14 -14 -14 -14 -13 -13 -14 -14
Height
5857 5857 5857 5857 5856 5855 5854 5853 5853 5854 5855 5857 5859 5860 5861 5862 5863 5864 5865 5866 5866 5866 5866 5868 5869 5870 5870 5871 5872 5873 5874 5875 5875 5875 5876 5876 5877 5877 5878 5878 5878 5878 5878
5857 5857 5857 5857 5857 5856 5854 5853 5853 5854 5856 5857 5858 5859 5860 5861 5862 5863 5863 5864 5864 5865 5865 5867 5867 5869 5869 5870 5871 5871 5872 5872 5873 5874 5874 5875 5875 5876 5876 5877 5877 5877 5878
5857 5856 5856 5856 5856 5856 5855 5855 5854 5855 5855 5856 5857 5858 5859 5859 5860 5861 5862 5862 5862 5864 5864 5865 5866 5867 5868 5869 5870 5870 5870 5870 5871 5871 5873 5873 5873 5874 5875 5875 5876 5875 5876
5858 5857 5856 5855 5855 5855 5855 5856 5856 5855 5856 5856 5857 5858 5858 5858 5859 5860 5861 5861 5861 5862 5862 5863 5864 5865 5866 5867 5868 5868 5868 5868 5868 5870 5871 5870 5871 5872 5873 5874 5874 5874 5874
5858 5858 5857 5856 5855 5855 5855 5855 5856 5856 5857 5857 5857 5857 5858 5858 5858 5859 5859 5859 5859 5860 5861 5862 5863 5864 5864 5865 5866 5866 5866 5866 5866 5868 5868 5868 5869 5869 5870 5871 5871 5871 5872
5858 5857 5857 5856 5855 5854 5854 5854 5854 5855 5856 5857 5857 5857 5858 5858 5858 5858 5858 5858 5858 5858 5859 5859 5860 5861 5862 5863 5863 5864 5864 5864 5864 5865 5866 5866 5867 5867 5868 5868 5868 5869 5869
5858 5857 5857 5856 5856 5855 5855 5854 5854 5854 5854 5854 5855 5856 5857 5857 5857 5857 5857 5857 5857 5857 5857 5857 5858 5859 5859 5860 5860 5861 5861 5861 5862 5862 5863 5864 5864 5864 5865 5865 5865 5866 5866
5857 5857 5856 5855 5855 5855 5855 5854 5854 5853 5853 5853 5853 5854 5854 5854 5855 5854 5854 5855 5855 5855 5855 5856 5856 5856 5857 5857 5857 5858 5858 5859 5859 5860 5860 5861 5861 5861 5862 5862 5862 5863 5863
5855 5855 5854 5854 5853 5853 5853 5853 5853 5852 5852 5851 5851 5851 5851 5851 5852 5852 5852 5852 5852 5853 5853 5853 5854 5854 5854 5854 5854 5855 5855 5855 5856 5857 5857 5857 5857 5858 5858 5858 5859 5859 5859
5852 5851 5851 5851 5851 5851 5851 5850 5850 5850 5850 5849 5849 5849 5848 5848 5848 5849 5849 5849 5849 5849 5850 5850 5850 5850 5850 5850 5851 5851 5852 5852 5853 5853 5854 5854 5854 5854 5855 5855 5856 5856 5855
5851 5850 5848 5848 5847 5847 5847 5847 5847 5847 5847 5846 5846 5846 5846 5845 5845 5846 5846 5845 5845 5846 5846 5846 5846 5846 5847 5847 5847 5847 5848 5848 5849 5850 5850 5850 5850 5851 5851 5851 5851 5852 5852
5850 5848 5847 5846 5845 5844 5843 5842 5842 5842 5843 5843 5843 5843 5843 5842 5841 5842 5842 5841 5841 5841 5841 5842 5841 5841 5842 5842 5843 5843 5843 5844 5845 5845 5845 5846 5846 5846 5847 5847 5847 5848 5848
5845 5845 5843 5842 5841 5841 5840 5839 5838 5838 5838 5838 5838 5838 5838 5839 5838 5837 5837 5837 5836 5836 5836 5836 5836 5836 5836 5837 5837 5837 5838 5838 5838 5839 5839 5839 5840 5840 5841 5842 5842 5843 5843
5840 5839 5838 5838 5837 5836 5835 5834 5834 5833 5832 5832 5832 5832 5833 5833 5833 5833 5832 5832 5832 5832 5831 5831 5831 5832 5831 5831 5831 5831 5831 5831 5831 5832 5833 5833 5834 5834 5834 5835 5836 5837 5837
5835 5833 5832 5832 5831 5830 5830 5829 5827 5827 5827 5826 5826 5826 5826 5826 5827 5826 5826 5826 5826 5826 5825 5825 5825 5826 5826 5826 5825 5825 5825 5825 5825 5825 5825 5826 5826 5827 5828 5829 5829 5830 5830
5828 5828 5827 5826 5825 5824 5823 5822 5822 5822 5821 5821 5821 5820 5821 5820 5820 5819 5819 5819 5819 5818 5818 5818 5818 5818 5818 5819 5819 5819 5819 5819 5819 5819 5819 5819 5819 5820 5820 5821 5822 5823 5823
5823 5821 5821 5820 5819 5819 5818 5816 5816 5815 5815 5815 5815 5814 5814 5814 5813 5812 5811 5811 5809 5810 5810 5810 5809 5810 5810 5810 5810 5810 5811 5812 5812 5812 5813 5813 5812 5813 5813 5814 5814 5814 5814
5817 5816 5815 5813 5813 5812 5810 5810 5809 5808 5808 5807 5806 5805 5805 5805 5805 5804 5804 5803 5801 5800 5802 5802 5801 5801 5800 5800 5800 5800 5801 5803 5804 5804 5805 5804 5804 5805 5805 5805 5806 5806 5806
5809 5809 5809 5807 5805 5804 5803 5802 5801 5801 5801 5800 5798 5797 5797 5796 5796 5795 5794 5793 5792 5791 5791 5792 5791 5790 5790 5790 5790 5790 5791 5793 5794 5795 5795 5795 5795 5795 5795 5796 5796 5798 5798
5801 5800 5799 5799 5798 5796 5795 5794 5793 5792 5791 5790 5789 5789 5788 5786 5785 5785 5784 5783 5782 5781 5780 5781 5781 5780 5780 5779 5779 5780 5781 5782 5783 5783 5783 5784 5785 5785 5786 5786 5787 5787 5789
5795 5794 5792 5790 5789 5788 5787 5786 5784 5783 5782 5781 5779 5778 5776 5775 5774 5773 5772 5771 5770 5771 5771 5770 5769 5769 5769 5768 5767 5768 5770 5771 5772 5773 5773 5773 5773 5773 5774 5776 5776 5777 5779
5786 5785 5783 5782 5781 5780 5778 5777 5775 5773 5772 5770 5769 5768 5766 5765 5763 5761 5760 5759 5759 5757 5756 5757 5756 5755 5755 5755 5754 5755 5757 5759 5760 5760 5761 5761 5761 5761 5762 5763 5765 5766 5767
5779 5777 5775 5773 5770 5768 5767 5765 5763 5762 5760 5759 5757 5756 5754 5752 5750 5750 5748 5746 5745 5744 5743 5742 5741 5742 5742 5742 5740 5740 5741 5744 5747 5747 5747 5747 5749 5749 5749 5750 5753 5754 5755
5767 5765 5763 5761 5759 5758 5755 5752 5750 5749 5747 5745 5744 5741 5740 5738 5736 5734 5733 5733 5732 5731 5729 5727 5728 5728 5727 5727 5726 5726 5725 5726 5729 5732 5732 5733 5734 5736 5737 5737 5738 5740 5742
5753 5751 5749 5747 5745 5743 5741 5739 5737 5734 5733 5732 5730 5727 5725 5722 5721 5719 5717 5716 5716 5715 5714 5714 5713 5711 5710 5712 5712 5711 5710 5710 5711 5713 5718 5718 5719 5720 5722 5724 5724 5726 5729
5737 5735 5733 5732 5730 5729 5727 5725 5725 5722 5718 5715 5713 5711 5709 5705 5703 5702 5700 5699 5697 5697 5697 5697 5696 5696 5696 5695 5694 5694 5695 5695 5695 5695 5697 5703 5704 5706 5708 5709 5711 5712 5714
Wind_Speed
5 6 7 8 9 9 8 1 7 12 13 13 12 12 12 13 14 14 15 14 12 12 15 17 18 19 19 18 16 14 14 14 14 12 10 8 6 6 7 7 6 6 7
6 5 6 6 6 8 8 9 6 2 9 13 11 9 10 10 11 13 13 15 12 7 7 11 14 16 16 14 12 13 14 15 13 12 11 9 8 8 7 6 7 6 7
10 7 4 5 5 5 6 7 6 5 2 3 6 8 8 8 8 9 11 11 14 12 9 9 11 11 11 9 10 10 12 14 13 14 12 9 9 10 10 10 11 10 10
10 10 7 5 3 4 3 3 3 3 1 1 2 4 6 8 9 9 10 10 10 12 12 10 10 9 10 9 10 9 8 9 11 11 11 11 11 12 12 13 13 13 13
8 7 7 7 5 3 4 3 2 2 2 1 3 4 5 7 9 10 10 11 12 11 11 12 10 10 12 12 12 13 12 13 13 13 12 13 13 13 14 16 16 17 17
8 7 6 6 6 6 4 4 5 4 5 5 5 4 4 7 8 9 10 10 12 13 12 13 14 14 15 15 14 14 13 14 16 15 15 16 17 16 16 16 17 17 18
10 10 8 7 6 6 6 5 4 6 8 9 9 9 8 8 8 9 9 10 11 12 14 14 15 16 16 16 17 15 14 14 16 15 16 17 17 17 17 16 17 18 18
13 12 12 11 10 9 7 6 6 7 7 9 12 12 12 12 12 12 12 12 12 13 14 15 16 18 18 18 18 17 17 17 16 16 16 16 15 16 17 16 17 17 18
12 13 14 15 15 14 13 12 10 9 9 10 11 12 15 16 16 15 16 16 16 16 17 17 17 18 19 19 19 19 18 19 17 18 18 17 17 17 19 18 19 19 18
13 13 13 15 16 17 17 16 15 15 13 13 13 13 14 15 18 19 20 20 21 21 20 20 20 20 20 20 20 20 20 20 19 19 19 20 20 20 21 21 21 21 20
15 15 16 14 15 16 17 19 20 20 19 18 18 17 16 17 19 18 19 23 25 25 24 24 24 23 23 23 23 22 23 23 23 22 22 23 23 22 21 20 20 21 20
17 18 19 20 18 17 18 19 20 22 23 23 23 22 21 21 22 21 21 23 23 25 27 28 28 27 27 27 27 27 27 27 27 27 26 25 25 24 23 23 22 23 21
20 19 20 19 20 21 21 20 20 21 23 25 26 27 26 25 25 26 25 25 26 27 27 28 29 29 30 30 30 31 31 32 31 31 30 29 28 28 28 28 27 27 24
20 21 21 23 23 24 24 24 24 23 23 23 25 27 28 29 29 29 30 30 30 30 31 31 31 31 31 31 31 31 32 33 34 34 34 34 33 32 33 32 31 30 28
18 20 22 22 24 25 26 28 28 27 27 27 26 26 27 29 30 31 32 33 34 35 35 36 35 34 34 34 34 34 34 34 34 34 34 35 35 36 36 36 34 33 32
24 23 24 24 25 26 29 30 30 31 31 31 30 31 30 31 32 34 34 35 35 37 40 40 40 39 38 38 38 38 37 37 36 36 36 36 36 37 37 37 38 37 36
27 28 27 26 26 28 29 31 34 34 33 34 34 34 34 35 36 37 37 39 39 38 38 41 43 43 43 43 43 43 42 41 40 39 38 38 38 39 38 38 38 37 37
26 25 27 29 27 27 29 31 33 35 36 37 38 39 38 38 38 40 41 42 44 45 41 41 42 44 45 45 46 46 45 44 44 43 43 43 43 42 41 40 40 40 40
31 30 29 31 33 33 32 32 32 34 36 36 38 41 43 43 43 43 44 45 47 49 49 47 46 47 47 47 47 46 45 44 44 44 46 47 47 47 45 44 44 42 41
33 33 31 30 31 34 36 35 35 35 36 38 39 40 42 45 47 47 47 48 50 50 51 52 52 53 52 52 52 50 49 46 45 44 43 44 46 49 50 49 48 47 45
34 35 36 36 35 35 35 36 39 42 42 41 42 45 46 46 45 47 47 48 48 49 52 53 54 56 56 58 58 56 54 52 50 48 46 45 45 47 49 50 50 49 48
37 38 37 36 36 37 39 40 41 42 43 45 47 47 48 49 49 50 50 50 50 50 52 54 56 56 58 59 60 60 60 58 56 53 52 50 49 48 48 49 50 50 50
36 37 37 37 38 39 39 40 41 42 44 46 49 51 53 54 54 54 56 57 56 55 55 55 56 57 57 58 60 60 59 57 58 58 58 56 54 51 51 50 49 50 51
39 40 41 41 41 42 42 43 45 46 48 48 49 52 53 56 58 57 56 56 58 59 58 57 58 60 60 60 61 62 62 60 57 56 57 60 59 57 54 53 53 53 52
40 40 39 40 41 42 43 45 46 49 51 53 56 57 57 58 58 58 58 57 58 60 62 60 58 59 60 60 61 63 63 64 63 60 56 58 59 61 60 57 56 56 55
47 47 47 48 50 50 51 52 53 55 56 58 59 63 65 64 62 62 63 64 64 64 66 68 68 68 66 63 63 62 63 63 65 65 64 59 59 60 61 62 62 61 60
Wind_Direction
20 30 41 53 62 63 59 100 241 232 232 245 252 256 254 255 256 262 260 255 262 252 245 242 247 255 259 264 266 260 259 260 267 268 272 275 273 275 271 267 261 259 257
8 5 12 27 41 51 61 68 63 239 238 243 253 257 255 257 261 270 276 268 264 264 258 251 246 249 250 252 261 263 258 253 259 260 259 266 269 272 272 273 264 263 262
25 12 5 352 6 34 42 56 76 74 63 245 251 258 264 271 269 273 280 282 264 265 269 258 253 240 239 251 257 264 258 250 261 265 260 263 261 263 269 268 267 266 265
27 27 17 5 343 344 12 29 39 65 110 180 260 271 269 269 269 273 275 279 276 272 271 272 265 257 243 240 249 250 255 252 253 256 260 260 261 262 264 267 264 266 267
10 14 19 19 7 334 307 310 309 320 322 290 260 249 250 262 272 273 273 266 268 269 271 263 257 259 265 258 254 250 252 256 254 256 258 258 260 261 261 261 264 265 265
332 340 347 354 360 2 348 302 281 271 271 271 262 253 269 271 264 268 271 269 269 270 272 270 265 259 262 260 260 256 255 258 258 259 259 259 259 261 261 264 263 263 264
308 309 316 319 323 332 333 331 308 278 264 261 262 262 255 251 261 272 272 269 268 269 265 264 266 265 265 262 261 263 262 258 259 263 264 261 263 263 264 265 267 267 266
311 302 297 299 300 299 303 308 305 301 290 273 266 265 262 260 257 257 260 264 264 261 261 260 257 258 260 261 261 260 259 259 257 258 258 259 261 263 263 264 263 262 264
303 300 296 290 286 287 286 286 285 285 286 287 282 274 267 265 262 259 261 260 260 261 259 259 259 258 257 258 259 259 258 259 256 254 255 257 258 260 264 266 267 266 265
294 293 290 289 287 284 282 279 275 273 273 272 274 273 275 273 267 262 261 261 260 261 262 261 260 259 259 259 259 256 255 254 253 257 259 261 262 263 263 265 266 265 265
299 301 297 289 287 284 280 276 274 271 268 265 264 265 267 270 272 272 269 265 263 261 260 261 264 263 261 259 258 257 256 256 257 259 262 263 264 263 263 264 267 269 267
298 299 297 298 293 287 283 279 276 271 269 267 264 261 258 259 264 265 265 267 267 267 265 264 262 261 262 262 262 260 259 259 260 261 262 262 261 258 258 263 265 267 267
291 287 285 283 284 286 281 278 276 276 274 269 267 264 261 259 259 261 262 263 265 265 264 264 263 262 262 262 262 262 261 260 260 259 260 260 259 258 258 260 262 265 267
282 281 279 279 277 274 272 271 271 270 269 269 266 265 264 261 260 260 262 262 262 263 265 263 261 261 261 260 261 262 262 262 262 262 261 262 261 260 260 261 262 262 262
277 275 274 271 271 269 267 267 264 263 263 264 264 262 261 260 260 262 262 262 261 261 260 262 263 262 263 262 261 260 260 261 262 263 263 263 261 260 261 261 262 262 262
285 280 280 278 271 267 270 268 266 265 266 266 266 265 263 262 261 261 262 262 262 262 262 260 260 259 260 261 263 263 263 263 263 263 262 263 264 262 260 259 260 260 260
286 287 288 281 277 276 269 265 268 268 265 266 265 265 266 267 265 264 264 264 265 263 264 263 261 260 259 258 258 259 260 261 262 263 263 263 262 262 261 261 260 259 257
290 288 288 285 282 276 271 271 267 262 265 266 265 263 261 260 262 265 267 267 266 267 263 263 264 263 262 260 259 259 259 260 261 261 262 261 261 261 261 261 261 260 260
288 285 282 281 282 282 279 272 267 267 265 262 262 265 269 268 264 261 260 260 263 266 267 263 262 262 263 263 263 262 261 261 261 262 262 262 261 261 261 261 262 262 262
286 287 285 281 279 279 279 276 273 269 265 264 263 262 262 263 265 265 265 264 262 261 263 266 265 264 263 264 265 265 264 262 260 260 262 263 264 263 262 262 262 261 260
281 284 288 290 288 284 280 279 277 273 270 268 265 263 263 264 264 263 262 261 262 264 264 263 264 265 265 264 265 264 264 264 264 263 261 261 263 264 263 261 260 260 261
285 286 286 282 279 279 280 280 280 279 274 269 266 265 263 261 262 264 263 262 262 262 260 260 261 261 262 263 264 264 264 263 262 261 262 260 259 261 262 262 260 259 258
280 281 281 279 279 277 274 272 270 269 270 271 270 267 264 262 261 261 263 265 265 263 263 261 259 261 261 261 262 262 261 260 261 260 260 258 258 258 258 259 259 259 258
279 278 274 272 273 273 272 271 272 272 270 269 266 264 263 263 263 262 262 263 265 265 264 261 261 261 261 258 258 260 260 260 256 255 257 258 257 256 256 255 255 255 257
282 280 277 276 274 271 269 268 268 268 268 269 270 267 264 262 262 262 262 261 260 259 259 259 255 254 255 257 259 258 258 259 259 256 252 254 256 256 255 253 253 255 256
287 286 285 283 280 280 279 279 279 273 268 267 266 266 266 264 262 262 262 262 260 259 259 258 257 256 255 255 255 256 259 258 258 258 255 252 253 256 256 255 254 254 256